This is the latest recevied weather packets stored in our database for station/object KV9E. If no packets are shown the sender has not sent any weather packets the latest 10 day(s).
| Time | Temp. | Humidity | Pressure | Rain* | Wind** | Luminosity | Snow |
|---|---|---|---|---|---|---|---|
| 1788478267 | 29.44° C | 70% | 1016 hPa | 0 mm | - | 24 W/m² | - |
| 1788477961 | 30° C | 68% | 1015.7 hPa | 0 mm | - | 28 W/m² | - |
| 1788477656 | 30° C | 67% | 1016 hPa | 0 mm | - | 30 W/m² | - |
| 1788477351 | 30.56° C | 62% | 1015.9 hPa | 0 mm | - | 33 W/m² | - |
| 1788477045 | 30.56° C | 66% | 1015.7 hPa | 0 mm | - | 37 W/m² | - |
| 1788476742 | 30.56° C | 66% | 1015.8 hPa | 0 mm | - | 44 W/m² | - |
| 1788476440 | 30.56° C | 64% | 1015.7 hPa | 0 mm | - | 49 W/m² | - |
| 1788476138 | 30.56° C | 63% | 1015.8 hPa | 0 mm | - | 52 W/m² | - |
| 1788475834 | 30.56° C | 64% | 1015.7 hPa | 0 mm | - | 55 W/m² | - |
| 1788475530 | 30.56° C | 63% | 1015.8 hPa | 0 mm | - | 51 W/m² | - |
| 1788475226 | 30.56° C | 62% | 1015.7 hPa | 0 mm | - | 54 W/m² | - |
| 1788474926 | 30.56° C | 63% | 1015.8 hPa | 0 mm | - | 45 W/m² | - |
| 1788474625 | 30.56° C | 63% | 1015.9 hPa | 0 mm | - | 41 W/m² | - |
| 1788474319 | 31.11° C | 62% | 1015.6 hPa | 0 mm | - | 36 W/m² | - |
| 1788474018 | 31.11° C | 61% | 1015.8 hPa | 0 mm | - | 35 W/m² | - |
| 1788473714 | 31.67° C | 60% | 1015.8 hPa | 0 mm | - | 35 W/m² | - |
| 1788473426 | 31.67° C | 60% | 1015.9 hPa | 0 mm | - | 85 W/m² | - |
| 1788473104 | 32.22° C | 61% | 1015.6 hPa | 0 mm | - | 49 W/m² | - |
| 1788472802 | 32.78° C | 57% | 1015.6 hPa | 0 mm | - | 39 W/m² | - |
| 1788472499 | 33.33° C | 57% | 1015.7 hPa | 0 mm | - | 183 W/m² | - |
| 1788472197 | 33.33° C | 57% | 1015.7 hPa | 0 mm | - | 187 W/m² | - |
| 1788471892 | 33.33° C | 55% | 1015.8 hPa | 0 mm | - | 70 W/m² | - |
| 1788471587 | 33.89° C | 55% | 1015.7 hPa | 0 mm | - | 81 W/m² | - |
| 1788471283 | 34.44° C | 52% | 1015.8 hPa | 0 mm | - | 276 W/m² | - |
| 1788470978 | 35° C | 51% | 1015.7 hPa | 0 mm | - | 320 W/m² | - |
* Rain latest hour (hover to see other rain measurements)
** Current wind speed in m/s (hover to see current wind gust speed)